Regional Weather Roundup
Issued by NWS

Home | Current Version | Previous Version | Graphics & Text | Print | Product List | Glossary On
Versions: 1 2 3 4 5 6 7 8 9 10 11 12 13 14 15 16 17 18 19 20 21 22 23 24 25 26 27 28 29 30 31 32 33 34 35 36 37 38 39 40 41 42 43 44 45 46 47 48 49 50
000
ASUS43 KLOT 301906
RWRIL

ILLINOIS REGIONAL WEATHER ROUNDUP
NATIONAL WEATHER SERVICE CHICAGO/ROMEOVILLE IL
200 PM CDT WED JUL 30 2014

NOTE: "FAIR" INDICATES FEW OR NO CLOUDS BELOW 12,000 FEET WITH NO
SIGNIFICANT WEATHER AND/OR OBSTRUCTIONS TO VISIBILITY.

* THESE STATIONS ARE NOT UNDER NWS QUALITY CONTROL. THEY ALSO MAY NOT
  REPORT WEATHER SUCH AS PRECIPITATION OR FOG.

ILZ001-002-007-009-015-016-024-302000-
NORTHWEST ILLINOIS

CITY           SKY/WX    TMP DP  RH WIND       PRES   REMARKS
MOLINE         MOSUNNY   81  59  47 NW7       30.05F HX  81
STERLING*      SUNNY     79  61  53 NW7       30.05F HX  80
SAVANNA*       MOSUNNY   80  57  46 W5        30.05S HX  80
$$

ILZ003-004-008-010-011-017-018-302000-
NORTH CENTRAL ILLINOIS

CITY           SKY/WX    TMP DP  RH WIND       PRES   REMARKS
ROCKFORD       MOSUNNY   78  58  49 W12       30.05F
FREEPORT*      MOSUNNY   77  63  61 NW10      30.07S
ROCHELLE*      MOSUNNY   78  54  43 W12G17    30.05S
DE KALB*       PTSUNNY   74  58  58 NW10      30.05F
PERU*          PTSUNNY   78  60  54 W9        30.05F
$$

ILZ005-006-012>014-019>023-302000-
NORTHEAST ILLINOIS

CITY           SKY/WX    TMP DP  RH WIND       PRES   REMARKS
CHICAGO-OHARE  PTSUNNY   78  53  41 NW12G17   30.01F
CHICAGO-MIDWAY PTSUNNY   80  54  40 N7        30.01F HX  80
AURORA         PTSUNNY   77  58  51 NW9       30.04F
LANSING*       PTSUNNY   78  52  40 W6G16     30.02F
JOLIET*        SUNNY     78  53  42 NW8G16    30.04S
WAUKEGAN       SUNNY     69  59  70 E10       30.03S
DUPAGE AIRPORT MOSUNNY   78  56  46 W8        30.03S
KANKAKEE*      PTSUNNY   74  61  63 W7        30.04F
WHEELING       PTSUNNY   74  59  59 NE10      30.03F
MORRIS*        MOSUNNY   78  59  51 NW9       30.04S
ROMEOVILLE*    MOSUNNY   78  55  44 W10       30.03F
NORTHERLY ISL    N/A     67  61  81 NE8         N/A
$$

LMZ740>746-302000-
SOUTHERN LAKE MICHIGAN

STATION/POSITION SKY/WX   TEMP    WIND        PRES    VSBY  WAVE
                          AIR SEA DIR/SP/G                  HT/PER
                          (F)     (DEG/KT/KT) (MB)    (MI)  (FT/S)
SOUTHERN BUOY              58 61  310/  8/ 10 1017.6R         1
WAUKEGAN HARBOR            63      40/ 11/ 12   N/A
HARRISON CRIB              63      30/ 10/ 12   N/A
BURNHAM HARBOR             67      40/  8/  9   N/A
CALUMET HARBOR             67      40/  7/  9 1015.6F
MICHIGAN CITY              68     350/  6/  7   N/A
MICHIGAN CITY 6N           66 70   30/  6/  6   N/A           1/ 3
ST. JOSEPH                 63 69  320/  6/  8   N/A           1/ 3
$$

ILZ025>027-034>036-040-047-049-050-058-095>099-302000-
WEST-CENTRAL ILLINOIS

CITY           SKY/WX    TMP DP  RH WIND       PRES   REMARKS
QUINCY         MOSUNNY   80  56  43 W6        30.09S HX  80
GALESBURG*     SUNNY     81  60  48 W6        30.08S HX  82
MACOMB*        MOSUNNY   77  60  56 W6        30.10S
JACKSONVILLE*  MOSUNNY   79  62  54 W5        30.09S HX  81
PITTSFIELD*    SUNNY     78  56  47 W5        30.10S
$$

ILZ028>032-037-038-041>044-048-051>054-059>061-302000-
CENTRAL ILLINOIS

CITY           SKY/WX    TMP DP  RH WIND       PRES   REMARKS
PONTIAC        SUNNY     81  63  54 W10       30.04F HX  82
DECATUR        PTSUNNY   78  56  46 W12       30.07F
PEORIA         PTSUNNY   80  57  45 NW8       30.06F HX  80
LACON*         MOSUNNY   78  58  48 NW10G16   30.04F
LINCOLN*       MOSUNNY   81  57  44 NW6       30.04S HX  81
SPRINGFIELD    MOSUNNY   81  59  47 W7        30.08S HX  81
TAYLORVILLE    MOSUNNY   77  59  53 NW5       30.08S
$$

ILZ033-039-045-046-055>057-062-063-302000-
EAST-CENTRAL ILLINOIS

CITY           SKY/WX    TMP DP  RH WIND       PRES   REMARKS
CHAMPAIGN      MOSUNNY   79  61  53 W9        30.07S HX  80
DANVILLE*      PTSUNNY   77  61  58 NW13      30.03S
RANTOUL*       MOSUNNY   80  58  46 W10       30.06S HX  81
MATTOON        MOSUNNY   78  58  49 W6        30.06F
PARIS*         PTSUNNY   76  62  63 W5        30.07S
$$

ILZ079-100>102-302000-
SOUTHWEST ILLINOIS

CITY           SKY/WX    TMP DP  RH WIND       PRES   REMARKS
ALTON          MOSUNNY   77  55  47 N6        30.08F
BELLEVILLE     PTSUNNY   82  57  42 VRB1      30.07F HX  81
CAHOKIA*       PTSUNNY   83  54  36 NE6       30.07F HX  82
SPARTA*        PTSUNNY   77  61  57 S8        30.09F
$$

ILZ064>066-069>071-074>076-080>082-084>086-088>090-092>094-302000-
SOUTH-CENTRAL ILLINOIS

CITY           SKY/WX    TMP DP  RH WIND       PRES   REMARKS
CARBONDALE     CLOUDY    76  60  57 SW8       30.10F
CAIRO*         CLOUDY    77  60  55 CALM      30.11S
EFFINGHAM*     PTSUNNY   79  51  37 W7        30.08S
MARION         PTSUNNY   79  59  50 SW12      30.11S HX  80
MT. VERNON     PTSUNNY   79  57  47 W3        30.09S HX  80
CENTRALIA*     MOSUNNY   87  51  29 NW5       30.08S HX  84
SALEM*         MOSUNNY  N/A N/A N/A W3        30.08F
METROPOLIS*    CLOUDY    79  53  41 S5        30.10F
$$

ILZ067-068-072-073-078-083-087-091-302000-
SOUTHEAST ILLINOIS

CITY           SKY/WX    TMP DP  RH WIND       PRES   REMARKS
LAWRENCEVILLE  MOSUNNY   79  60  52 W7        30.08F HX  80
FLORA*         SUNNY     80  53  38 W7        30.08F HX  80
FAIRFIELD*     MOSUNNY   81  57  44 SW6       30.08S HX  81
HARRISBURG*    PTSUNNY   79  61  53 SW10      30.10S HX  80
ROBINSON*      SUNNY     81  64  55 W10       30.08F HX  82
$$

ABBREVIATIONS USED IN REMARKS
   TC - TEMPERATURE IN CELSIUS
  WCI - WIND CHILL INDEX
   HX - HEAT INDEX
  VSB - VISIBILITY
$$



USA.gov is the U.S. government's official web portal to all federal, state and local government web resources and services.